sat.trackr.live / text

‹ back to catalog

HULIANWANG DIGUI-76

NORAD 65308 · 2025-187D

PAYLOAD ACTIVE UNKNOWN

§ Identity

Operator
Country
PRC
Launch date
2025-08-25
Launch site
WSC
Launch vehicle
Mass (kg)
RCS (m²)

External: N2YO · Heavens-Above · Gunter

§ Orbital elements

Epoch: 2026-05-25T03:46:56.849088Z

Period
108.33 min
Inclination
50.0017°
Eccentricity
0.0000531
Mean motion
13.29322841 rev/d
Perigee alt
1,148.9 km
Apogee alt
1,149.7 km
Semi-major
7,527.5 km
B*
6.4358e-5
RAAN
288.6030°
Arg perigee
93.4693°
Mean anomaly
266.6240°
Rev number
3,663

§ Raw data

HULIANWANG DIGUI-761 65308U 25187D   26145.15760242 -.00000094  00000+0  64358-4 0  99932 65308  50.0017 288.6030 0000531  93.4693 266.6240 13.29322841 36636

JSON: /api/v1/satellites/65308 · /tle

For live sub-satellite position, see the globe view (requires WebGL).

§ Visibility from observer

Set your observer location to see the next 7 days of passes ≥ 10°. The values pass through the URL so the page stays shareable.

No JS? Fill the form by hand. The geolocation button needs JavaScript.